Retour au catalogue

STARLINK-34793

ActifCommunicationsSSO
NORAD 65064·PAYLOAD·🇺🇸 United States

Lancé Jul 31, 2025 depuis Vandenberg Space Force Base

Loading…

Prochains Passages (prochaines 24 heures)

TLE

FraisSource: CelesTrak SupGP

Époque: Sep 14, 2026, 23:07 UTC

1 65064C 25165J   26257.96368056  .02129100  00000+0  81795-1 0  2577
2 65064  97.2841 329.3119 0001491  80.8683 155.3270 15.25434688    10

Suivez STARLINK-34793 en temps réel avec AllMySat

Download on the App Store